Powrót do katalogu

SAUDISAT 2

AktywnyKrótkofalarstwoSSO
NORAD 28371·PAYLOAD·🇸🇦 Saudi Arabia

Wystrzelony Jun 29, 2004 z Baikonur Cosmodrome

Loading…

Następne Przeloty (najbliższe 24 godziny)

TLE

ŚwieżeSource: Space-Track

Epoka: Sep 14, 2026, 06:07 UTC

1 28371U 04025F   26257.25510335  .00000180  00000-0  51167-4 0  9991
2 28371  98.5565 259.5645 0025231  25.7979 334.4470 14.56725584178715

Śledź SAUDISAT 2 w czasie rzeczywistym z AllMySat

Download on the App Store